{"data":{"norad_id":69824,"epoch":"2026-09-19T17:11:43.355328Z","epoch_age_seconds":85484,"freshness":"FRESH","line1":"1 69824U 26154F   26262.71647402  .00012954  00000+0  39377-3 0  9998","line2":"2 69824  53.1595 335.6787 0001031  81.1917 278.9202 15.34407825 13115","mean_motion":15.34407825,"eccentricity":0.0001031,"inclination_deg":53.1595,"raan_deg":335.6787,"arg_perigee_deg":81.1917,"mean_anomaly_deg":278.9202,"bstar":0.00039377,"rev_number":1311,"period_min":93.847279487121,"perigee_km":461.97469452598,"apogee_km":463.38527098782,"semimajor_km":6840.8169827569,"source":"CELESTRAK","updated_at":"2026-09-20T09:00:44.292082Z"}}